Theta_e
303 302 302 301 301 301 300 300 300 301 301 301 302 302 302 302 302 302 303 303 303 303 303 303 304 305 308 312 307 306 306 305 306 307 309 312 313 315 316 316 317 316 316 314 314 313 314
303 302 302 300 300 299 299 300 301 302 302 302 302 302 302 302 302 303 303 303 303 304 305 306 307 308 310 312 306 306 306 306 306 307 310 311 313 314 315 316 316 317 316 315 314 314 313
303 302 301 299 299 299 300 300 302 302 303 303 303 302 302 302 303 303 304 304 306 306 305 306 306 308 308 306 307 307 306 307 306 307 310 309 310 312 315 316 315 315 316 314 313 314 314
302 301 300 298 299 300 300 301 302 303 303 303 302 302 302 303 304 305 306 305 304 304 305 306 308 309 308 307 307 307 306 307 307 307 307 307 308 311 313 315 314 314 314 314 315 313 312
301 300 299 298 299 300 301 302 303 303 303 302 302 302 303 303 306 306 306 306 305 305 306 307 309 310 308 306 308 307 306 306 306 307 308 307 308 310 311 311 313 314 314 315 314 312 313
300 299 298 298 299 301 302 302 302 302 302 302 302 303 304 306 306 305 305 305 306 307 306 306 307 309 308 306 307 308 308 306 306 307 309 309 309 311 311 311 310 311 313 314 315 311 311
299 299 298 299 300 301 301 301 301 301 301 301 303 304 305 306 305 303 306 310 309 308 306 307 307 308 307 308 308 308 308 307 309 309 310 310 310 311 310 309 309 310 310 312 311 309 309
299 299 299 299 300 301 301 301 301 300 301 302 303 305 306 306 304 304 311 311 309 310 308 307 307 307 307 308 308 307 308 309 310 310 309 310 311 309 309 309 309 309 310 310 311 310 309
299 299 299 300 300 301 301 300 300 300 301 301 304 304 305 305 305 311 309 308 309 308 310 307 307 308 308 307 308 308 307 308 309 310 310 311 309 308 308 309 309 310 310 310 310 310 309
299 299 299 300 300 301 300 300 300 301 301 301 303 304 304 305 311 310 311 309 309 304 314 309 308 308 308 307 309 308 307 308 310 309 309 309 308 308 308 309 308 308 310 309 308 308 307
299 299 300 299 300 300 300 300 301 303 303 302 302 303 304 305 311 313 311 308 304 311 322 309 308 307 308 308 308 308 308 308 309 309 308 310 308 308 309 308 307 308 307 308 308 308 308
299 300 300 300 300 300 301 301 302 302 301 303 303 302 305 310 309 308 308 306 309 319 315 309 309 308 308 309 309 308 309 309 308 309 309 308 307 306 305 307 307 308 307 308 309 309 310
299 300 300 299 301 301 302 302 303 304 305 305 304 303 309 312 314 303 303 312 316 318 309 308 308 309 309 309 310 309 309 311 310 310 312 309 308 307 305 306 308 307 307 310 311 311 311
299 300 300 300 301 302 302 304 304 304 305 304 304 304 305 303 303 303 312 316 317 308 308 309 308 309 310 309 309 309 310 311 309 309 311 310 313 305 304 304 303 305 306 308 311 310 309
300 299 300 300 301 302 304 304 304 305 305 309 311 310 307 303 304 307 316 313 317 310 308 309 310 309 310 310 309 310 311 310 309 308 310 311 311 306 303 303 303 307 310 307 305 306 308
300 300 300 300 301 301 304 304 304 305 303 304 311 311 304 303 307 311 313 315 311 308 309 310 311 310 310 310 310 310 311 309 308 308 307 310 310 307 305 303 304 304 305 306 309 311 310
300 300 300 300 300 301 302 304 304 304 304 308 312 313 303 305 308 315 317 310 309 308 308 310 311 310 310 310 310 310 310 309 307 307 307 308 310 310 305 307 305 307 307 305 305 306 307
300 300 299 299 299 301 301 301 302 303 304 308 312 315 303 306 315 312 313 311 307 309 308 309 309 310 310 310 310 310 309 309 307 305 308 308 308 310 309 305 304 303 304 304 305 306 307
299 299 299 299 299 299 301 301 302 304 303 311 311 311 305 310 318 314 310 309 309 309 309 310 310 309 309 310 310 309 309 308 306 305 307 308 309 310 310 307 304 304 305 304 303 303 303
299 299 299 299 299 299 300 304 305 303 303 310 312 314 311 310 311 312 311 311 311 308 309 308 309 308 310 310 309 309 308 308 307 305 301 301 306 309 310 310 306 305 305 304 303 302 303
299 298 298 298 299 299 302 304 303 303 303 311 311 315 313 318 312 311 311 310 310 310 308 308 310 310 309 310 310 309 308 308 308 306 304 305 307 308 307 305 304 303 304 304 304 303 303
298 298 298 298 299 300 303 304 303 302 302 311 312 312 309 311 310 312 309 311 309 309 308 309 308 309 309 310 310 309 309 309 309 307 308 307 307 305 304 306 305 304 304 303 304 304 304
298 298 298 298 298 300 302 303 302 300 309 312 308 309 313 309 311 311 311 310 309 308 309 307 307 309 309 309 308 308 308 307 307 308 309 309 309 308 307 306 305 305 305 306 306 306 303
298 298 298 299 299 300 300 301 302 303 309 311 310 311 311 314 310 310 308 309 309 308 308 307 307 308 309 306 306 307 308 308 308 308 307 308 308 308 308 308 308 306 302 301 300 303 302
298 298 298 299 300 301 302 303 303 303 307 309 307 311 311 314 309 309 309 309 308 307 309 308 308 308 307 307 310 310 312 311 310 309 309 308 308 308 307 306 307 306 303 301 301 300 303
298 298 297 297 297 300 302 303 303 303 303 308 306 301 311 312 312 309 309 309 312 312 310 309 307 307 308 309 309 310 311 311 309 307 307 306 306 307 307 306 306 308 304 301 301 303 302
299 299 298 298 298 298 298 300 302 303 303 305 308 301 311 310 310 307 309 311 309 309 310 310 309 308 308 311 313 312 312 311 310 311 311 307 308 309 308 308 307 304 301 300 300 306 301
296 297 298 298 298 298 298 298 298 300 302 302 309 303 303 311 310 308 308 309 309 308 312 311 309 310 311 311 312 313 312 312 311 310 307 306 307 308 308 307 307 302 300 300 307 302 300
295 296 296 296 296 296 297 297 298 298 298 299 308 307 301 303 309 310 306 308 308 310 310 312 310 310 310 311 312 311 313 312 312 314 309 309 308 309 310 312 306 301 300 299 300 300 300
Wind_Speed
5 7 8 7 6 4 3 2 1 0 1 2 2 2 3 3 4 5 4 4 3 2 3 4 5 4 2 6 8 16 20 16 13 10 9 10 10 12 12 14 2 7 15 2 0 2 6
7 8 8 7 6 5 4 4 3 2 2 2 2 3 4 5 5 5 5 4 4 6 8 9 10 10 4 3 11 15 14 13 10 9 6 7 8 11 12 7 4 11 2 4 2 2 1
8 9 8 8 7 7 5 4 3 3 2 3 3 3 4 5 5 6 6 6 6 7 8 12 7 4 7 8 11 14 12 10 9 7 8 5 8 9 11 7 7 9 7 4 6 6 4
10 9 9 10 8 7 5 4 3 3 4 3 4 4 5 5 6 7 8 9 10 8 5 5 6 7 4 10 12 12 10 6 7 7 6 8 8 8 6 3 4 10 12 12 13 7 8
11 10 11 10 8 7 5 4 3 4 3 3 4 4 5 5 7 8 9 9 8 7 4 6 7 5 4 7 16 13 11 8 9 7 7 7 7 9 5 9 10 11 13 18 9 5 3
12 12 12 10 9 7 4 4 4 4 4 4 5 5 5 8 8 9 12 15 13 9 5 3 7 2 10 8 10 16 12 10 8 9 11 7 7 7 11 7 7 11 8 12 10 7 2
14 14 12 11 9 6 5 5 5 5 4 4 5 5 8 8 8 13 3 8 4 8 11 16 10 9 10 13 5 17 17 9 8 11 8 3 10 4 12 9 11 11 11 12 19 10 3
15 14 12 11 9 6 5 5 6 5 5 5 6 7 8 7 7 3 8 6 6 3 6 8 8 8 8 8 14 18 19 10 13 9 2 8 4 9 6 8 10 11 10 11 7 8 2
16 14 13 11 9 6 6 6 6 6 5 5 6 6 7 6 4 5 4 3 3 4 5 3 3 8 15 8 9 19 17 12 9 5 9 10 12 7 6 4 12 10 7 12 13 15 10
15 14 13 11 9 6 6 7 7 7 6 5 6 6 6 6 4 0 4 3 2 4 4 5 5 7 12 9 2 14 15 8 2 10 6 7 3 5 4 6 8 10 9 9 11 12 12
15 14 13 11 8 7 8 8 8 8 7 6 5 5 5 3 2 4 1 2 3 4 3 5 4 4 3 11 10 12 11 8 11 7 5 7 9 12 8 10 8 7 9 12 14 14 15
15 14 12 10 8 9 9 10 10 10 10 8 7 5 6 5 4 1 2 2 4 1 4 3 3 6 8 7 6 10 11 5 1 3 10 9 6 8 8 10 5 11 13 15 15 13 12
14 13 12 10 9 9 10 12 13 13 12 11 10 8 5 2 1 3 5 4 1 4 3 3 6 6 6 9 5 9 6 12 11 9 6 9 9 5 14 12 3 10 11 6 6 8 12
13 13 11 10 9 10 12 13 12 11 11 11 10 7 8 6 6 5 3 3 7 6 5 2 4 7 3 8 7 7 12 11 11 14 11 3 5 9 9 7 7 10 6 5 5 8 11
12 12 11 10 9 9 10 10 9 8 9 10 11 7 5 5 4 2 5 6 1 6 5 8 9 9 2 7 2 6 9 8 7 11 8 8 3 3 5 6 7 6 4 9 6 12 11
10 10 10 10 8 8 8 7 7 6 5 6 5 0 8 5 2 4 3 3 3 5 7 6 7 5 9 10 9 9 9 7 8 9 7 5 4 3 2 3 3 4 7 3 1 5 10
9 8 10 9 8 7 6 5 4 2 3 6 3 3 4 1 5 7 3 4 2 5 8 7 10 7 7 6 6 8 8 5 7 7 4 4 5 3 2 4 2 3 3 3 6 6 5
8 8 8 9 8 7 6 4 2 0 3 5 3 1 3 5 5 5 5 5 2 4 1 3 4 5 7 6 5 6 5 6 6 7 6 4 5 5 6 4 3 5 6 5 4 4 7
7 7 7 8 8 6 5 3 1 1 3 1 3 4 3 7 2 3 2 4 4 3 4 4 3 3 5 4 4 3 4 4 3 5 8 9 4 7 7 5 6 5 7 9 9 8 11
7 6 6 7 6 6 5 4 2 2 3 3 3 2 3 2 3 2 1 1 0 1 1 3 3 3 3 2 2 4 5 2 2 4 3 4 7 8 8 4 3 8 11 11 11 8 11
7 6 6 6 6 6 5 3 2 1 2 3 3 1 1 0 3 4 4 4 4 2 2 2 4 3 4 3 5 4 2 4 9 6 3 3 6 8 7 10 15 18 18 16 15 16 15
8 8 7 6 6 5 4 2 1 2 3 3 1 2 2 3 2 4 2 4 6 4 3 2 4 4 5 5 5 8 6 7 4 7 6 4 6 2 6 13 11 16 17 18 19 17 17
11 9 8 6 5 3 2 2 2 2 5 3 2 1 4 4 2 4 3 4 5 4 4 4 6 6 6 5 7 8 6 8 10 9 10 8 3 5 8 6 16 14 5 5 10 6 4
11 8 6 5 4 3 3 2 2 2 5 4 4 2 4 2 4 4 1 1 2 5 4 3 4 4 5 5 8 12 14 14 12 14 10 9 7 6 8 12 6 1 4 5 4 8 7
11 9 7 5 3 2 2 3 3 4 8 5 2 2 3 3 4 2 4 2 1 2 2 3 1 4 6 6 7 5 5 6 8 11 12 12 7 6 4 9 15 11 3 2 1 5 8
13 13 11 8 5 3 2 2 2 2 3 3 5 1 3 5 4 4 5 5 6 4 5 4 2 2 3 8 2 2 3 5 3 4 6 5 7 5 8 8 5 2 3 8 6 4 9
13 13 13 12 11 8 3 0 2 2 2 2 5 1 2 7 4 2 5 4 5 5 4 2 4 3 4 4 1 4 4 3 3 2 2 5 5 9 9 7 8 4 7 4 3 1 0
10 10 10 11 11 11 10 8 4 2 3 1 5 6 4 6 8 3 7 5 3 5 6 3 2 5 5 4 3 3 4 4 3 5 4 3 2 3 5 4 5 12 7 5 1 3 6
8 8 8 8 8 8 8 8 8 8 6 3 3 10 6 5 7 10 8 9 8 7 6 4 4 5 5 3 4 2 5 4 9 5 10 4 5 3 3 5 3 15 9 11 7 8 7
Wind_Direction
202 174 179 163 167 149 142 125 97 145 50 24 15 11 1 358 14 0 7 20 34 47 61 67 79 94 311 248 353 341 340 340 344 323 311 309 291 278 265 257 225 248 262 81 282 293 349
182 173 178 157 147 129 125 112 113 92 62 30 5 10 5 5 18 23 38 61 89 101 102 99 91 52 333 282 350 335 335 342 333 323 311 321 325 318 301 301 284 334 346 165 281 138 353
168 176 179 143 135 126 119 111 96 72 50 33 26 23 25 18 40 66 75 89 96 109 115 119 85 52 40 352 343 339 338 335 339 334 315 310 319 282 315 264 250 282 240 207 219 220 210
162 176 163 135 131 120 116 103 79 53 40 32 31 34 38 48 84 83 87 99 98 103 114 92 84 59 84 8 4 350 347 321 342 337 310 304 297 295 270 339 240 244 236 236 196 198 164
165 170 146 137 129 122 116 97 73 51 48 48 54 59 62 94 102 93 94 87 72 63 67 72 16 292 58 344 7 356 343 323 310 301 309 305 289 264 235 240 239 214 241 218 162 221 160
168 155 142 135 127 120 116 93 72 58 50 58 79 76 91 116 109 105 101 84 78 46 328 343 346 170 24 338 333 354 344 316 307 301 280 270 253 243 218 249 265 321 253 241 186 133 324
160 149 141 134 128 120 105 81 69 64 67 83 89 89 115 120 121 126 36 321 268 76 52 55 44 45 3 357 291 357 345 308 274 261 270 221 258 41 21 3 326 308 303 316 94 97 335
154 147 139 135 124 113 94 78 68 67 80 104 106 110 124 129 135 99 10 358 28 12 80 56 57 42 7 359 5 5 359 353 323 310 331 246 105 37 1 348 318 311 303 291 271 90 43
150 145 140 132 122 109 92 79 71 74 80 113 122 117 125 118 111 59 35 28 19 154 231 90 54 24 7 327 17 4 358 329 331 330 4 47 35 5 329 345 344 297 306 355 338 341 303
148 143 139 130 116 101 87 81 78 75 73 92 139 128 127 107 73 4 357 47 327 309 265 97 16 34 356 345 42 10 359 336 273 355 11 43 49 325 300 67 354 310 26 329 309 301 291
145 144 138 129 113 94 91 83 83 75 67 72 117 138 136 27 42 328 290 290 297 329 16 31 39 335 334 35 343 22 11 357 21 33 263 53 41 357 24 6 341 330 339 300 289 280 285
145 144 138 130 111 100 93 88 87 78 73 77 83 105 93 26 21 0 257 234 313 234 26 20 341 350 12 38 20 356 22 29 319 13 54 84 105 42 355 306 265 309 295 284 258 251 259
145 144 140 134 113 106 100 97 98 91 81 75 73 70 59 112 186 121 148 314 359 78 222 41 3 358 295 15 6 353 340 45 22 0 304 143 62 105 4 330 182 351 321 293 247 217 240
144 146 146 136 122 114 110 107 103 93 84 70 54 55 44 75 119 128 13 261 64 312 19 55 339 293 26 4 2 354 358 38 16 356 325 340 191 11 15 21 328 306 325 311 312 322 319
144 151 150 142 133 127 119 117 110 104 90 65 57 41 22 100 122 10 310 51 188 352 357 340 277 307 50 116 323 338 85 25 34 11 356 358 43 144 44 349 343 2 331 334 307 273 266
144 151 154 151 144 136 138 128 124 116 70 43 57 151 23 99 132 332 26 274 35 9 333 319 327 42 339 10 345 10 37 16 352 15 352 334 307 89 13 300 208 282 322 343 250 286 295
143 151 156 159 148 147 149 145 152 142 23 47 35 216 18 102 298 268 79 59 48 35 353 343 354 328 359 2 351 15 40 96 11 335 318 311 270 183 200 181 256 228 264 330 299 277 291
134 141 155 157 162 157 151 151 163 177 56 39 285 277 19 318 281 13 52 17 338 36 5 352 313 343 349 360 334 20 355 21 4 319 324 40 305 291 301 85 183 250 287 278 273 306 305
125 125 142 160 168 160 154 166 143 108 34 316 327 47 15 5 34 39 123 86 7 326 15 346 351 39 355 352 326 39 357 67 340 311 3 353 260 301 166 194 210 240 267 282 267 256 258
114 116 132 154 154 152 151 142 128 122 51 35 315 44 3 280 6 17 308 59 132 65 345 329 342 282 287 272 151 305 342 106 311 320 5 320 276 287 274 326 292 280 261 254 250 267 274
114 119 131 138 144 149 152 131 108 114 67 46 13 24 356 207 33 18 340 343 330 17 143 306 216 233 314 306 299 287 307 293 197 178 248 257 280 315 321 299 280 276 275 272 258 262 268
112 115 119 124 134 148 164 160 28 9 93 56 49 327 248 76 343 292 86 38 332 43 344 10 280 333 301 275 278 300 343 304 295 197 235 202 273 15 294 286 261 269 266 267 263 262 263
98 101 101 101 106 137 199 253 304 16 105 18 6 169 312 104 177 286 44 17 22 352 131 311 314 295 259 350 347 326 304 282 267 281 287 281 252 300 286 307 309 284 280 263 259 246 191
86 87 87 84 77 66 58 42 35 100 152 71 245 298 289 281 268 4 345 327 349 15 315 343 278 288 15 315 293 269 252 252 270 267 250 273 277 268 283 303 273 152 194 176 233 275 213
76 70 67 65 72 82 99 80 79 106 127 81 17 318 303 276 254 205 224 217 178 183 252 293 269 320 316 279 279 313 287 285 267 252 239 231 271 299 296 302 284 279 186 181 146 284 221
72 66 64 62 62 80 120 147 119 144 170 95 314 302 300 301 266 307 215 216 259 223 193 205 281 284 289 278 310 248 289 317 310 312 166 243 254 245 289 300 286 194 183 180 166 269 79
66 61 57 57 57 54 49 333 250 239 222 169 304 291 316 286 272 235 241 269 235 304 278 134 187 230 247 268 282 275 271 360 280 256 291 263 246 250 268 260 256 164 197 172 254 72 93
60 55 52 49 46 44 42 40 22 295 267 219 282 320 293 300 303 281 263 263 271 282 279 108 205 213 219 260 276 278 281 300 284 212 193 245 279 246 233 250 267 167 175 214 144 233 269
44 41 38 35 32 31 29 30 30 26 24 91 12 320 269 252 290 276 251 241 264 285 315 180 231 243 222 265 286 282 290 272 269 292 166 234 205 289 276 242 185 195 222 217 235 255 269